Location: Oak Glen
(34.0495°N, 116.9470°E)
Time: 06:11:09
(UTC-08:00)

Envisat - Pass Details

Date: 16 October 2017
Orbit: 764 x 766 km, 98.2° (Epoch: 14 December)

Event Time Altitude Azimuth Distance (km) Brightness Sun altitude
Exits shadow 04:24:38 19° 23° (NNE) 1,775 4.7 -23.0°
Drops below altitude 10° 04:26:18 10° 10° (N) 2,306 5.4 -23.4°
Sets 04:28:50 0° 0° (N) 3,236 6.3 -23.9°
